Location: Sabalos
(43.2860°N, 0.1414°E)
Time: 04:38:09
(UTC+00:00)

BREEZE-M R/B - Pass Details

Date: 05 July 2020
Orbit: 311 x 4532 km, 49.7° (Epoch: 05 August)

Event Time Altitude Azimuth Distance (km) Brightness Sun altitude
Rises 22:06:11 0° 299° (WNW) 6,087 9.1 -18.7°
Reaches altitude 10° 22:11:13 10° 298° (WNW) 4,342 8.1 -19.1°
Maximum altitude 22:21:05 64° 220° (SW) 1,095 4.1 -19.9°
Enters shadow 22:23:01 39° 156° (SSE) 1,227 4.0 -20.1°
